EN

Hourly Weather Ladushkin

Today, 25 July, Sunday

Time Temperature Precipitation Wind Pressure Humidity
00:00 +16°C° 0 mm 3 mps 761 mmHg 80%
01:00 +16°C° 0 mm 3 mps 761 mmHg 81%
02:00 +16°C° 0 mm 3 mps 761 mmHg 82%
03:00 +16°C° 0 mm 3 mps 761 mmHg 83%
04:00 +16°C° 0 mm 3 mps 761 mmHg 84%
05:00 +18°C° 0 mm 3 mps 761 mmHg 79%
06:00 +20°C° 0 mm 3 mps 761 mmHg 73%
07:00 +22°C° 0 mm 4 mps 761 mmHg 67%
08:00 +23°C° 0 mm 4 mps 761 mmHg 62%
09:00 +26°C° 0 mm 4 mps 761 mmHg 57%
10:00 +27°C° 0 mm 4 mps 761 mmHg 52%
11:00 +28°C° 0 mm 4 mps 761 mmHg 51%
12:00 +28°C° 0 mm 4 mps 761 mmHg 50%
13:00 +29°C° 0 mm 4 mps 761 mmHg 48%
14:00 +29°C° 0 mm 4 mps 761 mmHg 48%
15:00 +29°C° 0 mm 4 mps 760 mmHg 47%
16:00 +30°C° 0 mm 4 mps 760 mmHg 46%
17:00 +28°C° 0 mm 4 mps 760 mmHg 53%
18:00 +26°C° 0 mm 4 mps 760 mmHg 59%
19:00 +25°C° 0 mm 3 mps 760 mmHg 65%
20:00 +23°C° 0.1 mm 4 mps 760 mmHg 69%
21:00 +22°C° 0.1 mm 4 mps 761 mmHg 73%
22:00 +21°C° 0.1 mm 4 mps 761 mmHg 77%
23:00 +21°C° 0 mm 4 mps 761 mmHg 77%

Tomorrow, 26 July, Monday

Time Temperature Precipitation Wind Pressure Humidity
00:00 +20°C° 0 mm 4 mps 761 mmHg 77%
01:00 +20°C° 0 mm 4 mps 761 mmHg 77%
02:00 +20°C° 0.1 mm 3 mps 761 mmHg 75%
03:00 +20°C° 0.1 mm 3 mps 761 mmHg 74%
04:00 +20°C° 0.1 mm 3 mps 761 mmHg 72%
05:00 +21°C° 0.1 mm 3 mps 761 mmHg 70%
06:00 +22°C° 0.1 mm 3 mps 761 mmHg 68%
07:00 +24°C° 0.1 mm 3 mps 761 mmHg 66%
08:00 +26°C° 0 mm 4 mps 761 mmHg 60%
09:00 +27°C° 0 mm 5 mps 761 mmHg 53%
10:00 +29°C° 0 mm 6 mps 761 mmHg 47%
11:00 +30°C° 0 mm 6 mps 760 mmHg 45%
12:00 +32°C° 0 mm 6 mps 760 mmHg 43%
13:00 +32°C° 0 mm 6 mps 760 mmHg 41%
14:00 +32°C° 0 mm 6 mps 760 mmHg 44%
15:00 +32°C° 0 mm 6 mps 759 mmHg 46%
16:00 +30°C° 0 mm 6 mps 759 mmHg 48%
17:00 +29°C° 0 mm 6 mps 759 mmHg 55%
18:00 +27°C° 0 mm 5 mps 759 mmHg 61%
19:00 +25°C° 0 mm 5 mps 759 mmHg 68%
20:00 +25°C° 0 mm 5 mps 759 mmHg 69%
21:00 +23°C° 0 mm 5 mps 759 mmHg 69%
22:00 +23°C° 0 mm 5 mps 759 mmHg 70%
23:00 +21°C° 0.1 mm 5 mps 759 mmHg 77%

Day after tomorrow, 27 July, Tuesday

Time Temperature Precipitation Wind Pressure Humidity
00:00 +20°C° 0.1 mm 4 mps 759 mmHg 83%
01:00 +19°C° 0.1 mm 4 mps 758 mmHg 90%
02:00 +19°C° 0.4 mm 4 mps 758 mmHg 92%
03:00 +19°C° 0.4 mm 4 mps 758 mmHg 94%
04:00 +19°C° 0.4 mm 4 mps 758 mmHg 95%
05:00 +19°C° 0.3 mm 4 mps 757 mmHg 95%
06:00 +20°C° 0.3 mm 3 mps 757 mmHg 94%
07:00 +21°C° 0.3 mm 3 mps 757 mmHg 93%
08:00 +21°C° 0.2 mm 3 mps 757 mmHg 90%
09:00 +22°C° 0.2 mm 3 mps 757 mmHg 87%
10:00 +24°C° 0.2 mm 3 mps 757 mmHg 84%
11:00 +24°C° 0.5 mm 3 mps 757 mmHg 81%
12:00 +25°C° 0.5 mm 3 mps 757 mmHg 78%
13:00 +26°C° 0.5 mm 3 mps 757 mmHg 76%
14:00 +25°C° 0.7 mm 3 mps 757 mmHg 77%
15:00 +25°C° 0.7 mm 4 mps 757 mmHg 78%
16:00 +25°C° 0.7 mm 4 mps 757 mmHg 80%
17:00 +23°C° 0.1 mm 4 mps 757 mmHg 83%
18:00 +23°C° 0.1 mm 4 mps 757 mmHg 85%
19:00 +22°C° 0.1 mm 4 mps 758 mmHg 88%
20:00 +21°C° 0.1 mm 4 mps 758 mmHg 90%
21:00 +21°C° 0.1 mm 3 mps 758 mmHg 91%
22:00 +20°C° 0.1 mm 3 mps 758 mmHg 93%
23:00 +20°C° 0 mm 3 mps 758 mmHg 92%

28 July, Wednesday

Time Temperature Precipitation Wind Pressure Humidity
00:00 +20°C° 0 mm 3 mps 758 mmHg 92%
01:00 +19°C° 0 mm 3 mps 758 mmHg 91%
02:00 +19°C° 0 mm 3 mps 758 mmHg 90%
03:00 +19°C° 0 mm 3 mps 758 mmHg 88%
04:00 +19°C° 0 mm 3 mps 758 mmHg 87%
05:00 +20°C° 0 mm 3 mps 758 mmHg 82%
06:00 +21°C° 0 mm 3 mps 758 mmHg 77%
07:00 +24°C° 0 mm 3 mps 758 mmHg 72%
08:00 +25°C° 0.1 mm 3 mps 758 mmHg 68%
09:00 +26°C° 0.1 mm 3 mps 758 mmHg 64%
10:00 +27°C° 0.1 mm 2 mps 758 mmHg 59%
11:00 +28°C° 0 mm 3 mps 758 mmHg 56%
12:00 +28°C° 0 mm 3 mps 757 mmHg 54%
13:00 +29°C° 0 mm 3 mps 757 mmHg 51%
14:00 +27°C° 0.1 mm 4 mps 757 mmHg 60%
15:00 +25°C° 0.1 mm 5 mps 758 mmHg 70%
16:00 +22°C° 0.1 mm 7 mps 758 mmHg 80%
17:00 +22°C° 0.1 mm 5 mps 758 mmHg 81%
18:00 +21°C° 0.1 mm 3 mps 758 mmHg 82%
19:00 +22°C° 0.1 mm 1 mps 758 mmHg 83%
20:00 +21°C° 0.3 mm 2 mps 758 mmHg 86%
21:00 +20°C° 0.3 mm 3 mps 758 mmHg 88%
22:00 +20°C° 0.3 mm 3 mps 758 mmHg 90%
23:00 +19°C° 0.2 mm 3 mps 758 mmHg 91%

29 July, Thursday

Time Temperature Precipitation Wind Pressure Humidity
00:00 +19°C° 0.2 mm 4 mps 758 mmHg 92%
01:00 +18°C° 0.2 mm 4 mps 758 mmHg 93%
02:00 +18°C° 0 mm 4 mps 758 mmHg 93%
03:00 +18°C° 0 mm 4 mps 758 mmHg 93%
04:00 +18°C° 0 mm 4 mps 758 mmHg 92%
05:00 +19°C° 0 mm 4 mps 758 mmHg 88%
06:00 +20°C° 0 mm 4 mps 758 mmHg 84%
07:00 +21°C° 0 mm 5 mps 758 mmHg 80%
08:00 +22°C° 0 mm 5 mps 758 mmHg 74%
09:00 +23°C° 0 mm 5 mps 758 mmHg 68%
10:00 +25°C° 0 mm 5 mps 758 mmHg 62%
11:00 +25°C° 0.1 mm 5 mps 758 mmHg 59%
12:00 +26°C° 0.1 mm 5 mps 758 mmHg 56%
13:00 +26°C° 0.1 mm 5 mps 758 mmHg 52%
14:00 +26°C° 0.1 mm 4 mps 758 mmHg 56%
15:00 +25°C° 0.1 mm 4 mps 758 mmHg 60%
16:00 +23°C° 0.1 mm 4 mps 758 mmHg 63%
17:00 +22°C° 0 mm 4 mps 757 mmHg 66%
18:00 +21°C° 0 mm 3 mps 757 mmHg 70%
19:00 +20°C° 0 mm 3 mps 757 mmHg 73%
20:00 +20°C° 0 mm 2 mps 757 mmHg 75%
21:00 +19°C° 0 mm 2 mps 757 mmHg 78%
22:00 +19°C° 0 mm 1 mps 757 mmHg 80%
23:00 +19°C° 0 mm 1 mps 757 mmHg 81%

30 July, Friday

Time Temperature Precipitation Wind Pressure Humidity
00:00 +18°C° 0 mm 2 mps 756 mmHg 81%
01:00 +18°C° 0 mm 3 mps 756 mmHg 82%
02:00 +17°C° 0 mm 3 mps 756 mmHg 84%
03:00 +17°C° 0 mm 3 mps 756 mmHg 85%
04:00 +17°C° 0 mm 3 mps 756 mmHg 87%
05:00 +18°C° 0 mm 3 mps 756 mmHg 80%
06:00 +20°C° 0 mm 4 mps 756 mmHg 73%
07:00 +22°C° 0 mm 4 mps 755 mmHg 65%
08:00 +23°C° 0 mm 5 mps 755 mmHg 59%
09:00 +26°C° 0 mm 5 mps 755 mmHg 52%
10:00 +27°C° 0 mm 5 mps 755 mmHg 45%
11:00 +27°C° 0 mm 5 mps 755 mmHg 48%
12:00 +26°C° 0 mm 5 mps 755 mmHg 51%
13:00 +26°C° 0 mm 5 mps 755 mmHg 54%
14:00 +25°C° 0.1 mm 5 mps 755 mmHg 57%
15:00 +23°C° 0.1 mm 5 mps 755 mmHg 61%
16:00 +23°C° 0.1 mm 5 mps 755 mmHg 65%
17:00 +22°C° 0 mm 4 mps 755 mmHg 67%
18:00 +21°C° 0 mm 3 mps 756 mmHg 68%
19:00 +20°C° 0 mm 2 mps 756 mmHg 70%
20:00 +19°C° 0 mm 2 mps 756 mmHg 72%
21:00 +18°C° 0 mm 2 mps 756 mmHg 75%
22:00 +19°C° 0 mm 1 mps 756 mmHg 77%
23:00 +17°C° 0 mm 2 mps 756 mmHg 80%
Show more